Total_Precipitation_Accumulation
0.02 0.05 0.09 0.13 0.15 0.19 0.20 0.25 0.29 0.29 0.28 0.35 0.49 0.71 0.93 1.05 1.26 1.39 1.41 1.58 1.92 2.33 2.62 2.89 3.04 3.28 3.61 3.94 4.27 4.64 5.16 5.50 5.42 5.51 5.44 5.28 4.92 4.66 4.22 3.75 3.41 3.36 3.36 3.61
0.04 0.06 0.06 0.07 0.08 0.11 0.17 0.20 0.24 0.27 0.29 0.38 0.43 0.66 0.92 0.96 1.16 1.30 1.43 1.61 1.74 1.94 2.41 2.68 2.71 3.00 3.22 3.75 4.27 4.72 4.81 4.80 4.69 4.98 5.38 5.56 5.50 4.95 4.25 3.84 3.73 3.36 3.26 3.45
0.05 0.07 0.05 0.04 0.05 0.08 0.18 0.21 0.25 0.27 0.32 0.44 0.56 1.02 1.18 1.10 1.14 1.20 1.29 1.51 1.64 1.80 1.98 2.32 2.39 2.46 2.67 3.19 3.75 3.96 3.94 3.88 3.79 3.95 4.36 4.66 4.98 4.77 4.41 4.06 3.79 3.35 3.21 3.24
0.04 0.05 0.04 0.05 0.05 0.07 0.15 0.13 0.16 0.22 0.37 0.62 0.68 1.29 1.51 1.52 1.49 1.28 1.32 1.39 1.65 1.80 1.85 2.03 2.12 2.18 2.20 2.41 2.68 2.83 3.06 3.24 3.30 3.35 3.56 3.83 4.14 4.20 4.20 4.12 3.76 3.36 3.04 3.02
0.05 0.04 0.05 0.08 0.07 0.07 0.11 0.10 0.13 0.20 0.34 0.63 0.71 1.03 1.57 1.73 1.74 1.42 1.33 1.33 1.49 1.51 1.59 1.73 1.84 1.90 1.98 2.17 2.40 2.53 2.87 3.08 3.20 3.19 3.27 3.50 3.83 3.85 3.67 3.56 3.66 3.43 3.14 2.88
0.08 0.06 0.07 0.08 0.07 0.07 0.09 0.11 0.18 0.26 0.43 0.93 0.81 0.90 1.49 1.64 1.51 1.49 1.33 1.20 1.27 1.24 1.39 1.61 1.72 1.79 1.86 1.95 2.16 2.40 2.68 2.72 2.83 2.89 2.90 2.96 3.19 3.36 3.23 3.13 3.16 3.04 2.92 2.83
0.17 0.14 0.11 0.08 0.09 0.09 0.11 0.21 0.65 1.10 1.29 1.27 0.80 0.93 1.48 1.35 1.21 1.25 1.31 1.36 1.32 1.23 1.25 1.41 1.57 1.60 1.73 1.84 1.97 2.12 2.27 2.42 2.46 2.50 2.44 2.41 2.52 2.70 2.75 2.67 2.73 2.65 2.43 2.36
0.26 0.29 0.19 0.11 0.10 0.13 0.17 0.29 0.84 1.21 1.21 1.16 0.97 1.40 1.58 1.20 1.12 1.12 1.07 1.05 1.03 0.98 0.95 1.04 1.24 1.37 1.50 1.65 1.73 1.84 1.98 2.18 2.29 2.31 2.33 2.32 2.30 2.38 2.50 2.64 2.49 2.45 2.18 2.04
0.19 0.21 0.15 0.11 0.10 0.14 0.27 0.34 0.39 0.65 0.81 1.21 1.43 1.67 1.49 1.18 1.20 1.12 1.09 0.98 0.98 0.97 0.95 0.95 1.07 1.19 1.24 1.33 1.44 1.56 1.73 1.95 2.15 2.13 2.28 2.26 2.12 2.22 2.41 2.55 2.46 2.34 2.31 2.17
0.10 0.15 0.17 0.13 0.14 0.18 0.21 0.27 0.37 0.57 0.90 1.25 1.46 1.92 2.10 1.73 1.54 1.28 1.28 1.15 1.06 0.98 0.88 0.91 0.95 0.98 0.97 1.11 1.44 1.58 1.72 1.89 2.00 1.97 1.89 1.79 1.87 2.05 2.22 2.23 2.18 2.33 2.39 2.38
0.09 0.12 0.17 0.20 0.19 0.21 0.23 0.28 0.37 0.50 0.62 0.99 1.51 1.78 1.51 1.48 1.44 1.38 1.26 1.20 1.13 1.05 0.97 1.01 1.09 1.07 1.06 1.15 1.41 1.41 1.47 1.69 1.80 1.79 1.65 1.62 1.70 1.80 1.88 1.91 1.90 2.10 2.21 2.28
0.11 0.13 0.22 0.27 0.23 0.20 0.21 0.25 0.37 0.60 0.65 0.79 1.22 1.53 1.06 1.14 1.18 1.06 1.03 1.06 0.97 0.96 0.96 1.01 1.05 1.18 1.34 1.47 1.44 1.32 1.33 1.38 1.49 1.52 1.50 1.54 1.58 1.55 1.53 1.59 1.71 1.85 1.94 1.97
0.14 0.19 0.36 0.57 0.58 0.36 0.28 0.24 0.29 0.39 0.51 0.63 1.00 1.40 1.11 1.05 1.17 1.09 1.04 1.07 1.01 0.95 0.97 1.03 1.12 1.16 1.21 1.38 1.53 1.38 1.36 1.42 1.49 1.53 1.58 1.69 1.73 1.63 1.57 1.61 1.68 1.69 1.65 1.69
0.13 0.16 0.31 0.59 0.53 0.40 0.34 0.31 0.33 0.39 0.52 0.59 0.72 1.06 1.19 1.17 1.14 1.12 1.12 1.03 1.04 1.01 0.88 0.91 1.08 1.26 1.27 1.28 1.38 1.29 1.24 1.34 1.47 1.71 1.95 2.03 1.99 1.89 1.79 1.69 1.69 1.67 1.61 1.71
0.14 0.14 0.17 0.21 0.28 0.36 0.40 0.32 0.31 0.35 0.42 0.58 0.59 0.78 1.08 1.16 1.04 1.11 1.24 1.07 0.94 0.99 0.96 0.88 1.00 1.20 1.29 1.32 1.31 1.26 1.28 1.31 1.48 1.77 1.95 2.06 2.13 2.08 2.00 1.87 1.76 1.73 1.74 1.70
0.21 0.21 0.21 0.24 0.32 0.39 0.41 0.34 0.28 0.28 0.31 0.37 0.50 0.77 0.89 0.83 0.89 0.99 1.03 1.01 1.02 1.09 1.04 0.97 0.97 1.03 1.17 1.26 1.31 1.33 1.42 1.49 1.56 1.60 1.67 1.82 1.96 2.00 1.94 1.76 1.68 1.75 1.78 1.82
0.36 0.36 0.35 0.38 0.38 0.47 0.53 0.40 0.37 0.32 0.30 0.41 0.66 0.92 0.89 0.87 0.96 0.93 0.94 0.92 1.04 1.09 0.98 0.93 0.95 0.98 1.05 1.09 1.18 1.44 1.49 1.47 1.50 1.59 1.67 1.84 1.90 1.89 1.85 1.70 1.70 1.76 1.79 1.84
0.34 0.44 0.47 0.51 0.66 0.81 0.57 0.38 0.38 0.38 0.42 0.52 0.66 0.74 0.76 0.77 0.88 0.89 0.84 0.84 0.83 0.89 0.84 0.84 0.92 0.99 1.01 1.00 1.01 1.16 1.34 1.45 1.52 1.57 1.65 1.77 1.84 1.95 2.04 1.97 1.85 1.86 1.87 1.81
0.33 0.48 0.55 0.65 0.86 0.74 0.53 0.46 0.48 0.55 0.65 0.67 0.72 0.76 0.78 0.79 0.94 1.08 0.87 0.78 0.76 0.76 0.80 0.89 1.01 0.99 0.98 0.99 1.02 1.14 1.30 1.44 1.59 1.67 1.73 1.76 1.89 2.07 2.08 1.94 1.92 1.96 1.92 1.79
0.39 0.49 0.69 0.79 1.01 0.96 0.77 0.57 0.49 0.63 1.08 0.82 0.76 0.81 0.84 0.91 1.17 1.27 0.95 0.82 0.82 0.84 0.89 0.85 0.85 0.87 0.93 1.04 1.13 1.21 1.39 1.61 1.74 1.76 1.86 1.93 1.99 2.14 2.28 2.32 2.27 2.16 2.10 2.02
0.83 0.81 0.79 0.92 1.07 0.94 0.69 0.57 0.64 1.12 1.40 1.03 0.95 0.98 0.97 1.06 1.05 1.01 0.92 0.83 0.83 0.88 0.94 0.96 0.99 1.00 1.05 1.09 1.26 1.49 1.62 1.71 1.79 1.87 1.95 2.16 2.26 2.39 2.54 2.73 2.63 2.55 2.46 2.41
1.11 1.19 1.16 1.18 1.37 1.36 0.83 0.70 1.05 1.33 1.12 1.14 1.16 1.13 1.14 1.00 0.85 0.84 0.90 0.88 0.84 0.85 0.99 1.09 1.22 1.27 1.21 1.20 1.33 1.53 1.68 1.77 1.95 1.97 2.06 2.15 2.29 2.37 2.53 2.93 2.93 2.96 2.96 2.76
1.23 1.38 1.52 1.51 1.51 1.22 1.03 1.09 1.16 1.26 1.23 1.24 1.09 0.97 0.99 0.95 0.90 0.94 1.04 1.03 0.95 0.95 1.07 1.12 1.26 1.35 1.39 1.47 1.63 1.80 1.85 1.94 2.04 2.18 2.34 2.43 2.51 2.68 2.80 2.96 3.01 3.03 2.98 2.82
1.21 1.10 1.49 1.66 1.52 1.36 1.24 1.14 1.19 1.35 1.31 1.19 1.04 0.99 1.00 0.99 0.92 0.88 0.92 0.98 0.97 0.96 1.08 1.20 1.32 1.54 1.68 1.75 1.87 2.02 2.13 2.24 2.38 2.54 2.64 2.67 2.71 2.73 2.79 2.95 2.94 2.93 2.88 2.74
1.18 1.16 1.52 1.82 1.73 1.68 1.48 1.19 1.11 1.14 1.11 1.03 1.04 1.01 1.00 1.04 0.98 0.90 0.88 0.91 0.98 1.11 1.20 1.30 1.50 1.70 1.76 1.87 1.99 2.12 2.35 2.57 2.65 2.67 2.65 2.61 2.63 2.74 2.82 2.80 2.77 2.81 2.83 2.83
1.36 1.38 1.73 2.06 1.81 1.78 1.67 1.36 1.18 1.07 1.00 0.99 1.12 1.14 1.04 1.05 1.09 1.04 1.05 1.06 1.10 1.18 1.32 1.47 1.64 1.80 1.90 2.05 2.18 2.30 2.50 2.80 2.99 2.88 2.80 2.78 2.81 2.82 2.77 2.73 2.68 2.71 2.61 2.57